Location: Capvern
(43.1036°N, 0.3160°E)
Time: 11:26:55
(UTC+00:00)

Daily predictions for brighter satellites

Satellite Brightness Start Highest point End
(mag) Time Altitude Azimuth Time Altitude Azimuth Time Altitude Azimuth
SAR-Lupe-2 3.9 18:40:03 10° SE 18:43:28 45° ENE 18:46:54 10° N
Meteor PRIRODA 4.0 18:45:15 10° SE 18:48:15 34° ENE 18:51:17 10° N
Landsat 7 4.1 18:43:40 10° S 18:48:20 71° WSW 18:53:02 10° NNW
Cosmos 1536 4.0 18:49:47 10° SE 18:52:39 21° E 18:55:33 10° NE
Cosmos 1842 4.0 18:50:12 10° NNE 18:53:23 28° ENE 18:56:33 10° SE
Cosmos 2061 Rocket 4.3 18:47:12 10° S 18:53:38 81° W 19:00:07 10° N
COSMOS 2428 2.7 18:48:15 10° SSW 18:53:55 76° ESE 18:59:40 10° NNE
USA 59 Rocket 0.4 18:50:38 10° NNW 18:54:28 51° NE 18:59:47 10° SE
Cosmos 1707 3.6 18:54:10 10° NNE 18:57:11 25° ENE 19:00:08 10° SE
Cosmos 1818 4.5 18:53:55 10° SW 18:59:14 53° NW 19:04:37 10° NNE
Okean O Rocket 3.3 18:57:42 12° E 19:00:04 17° ENE 19:02:55 10° NNE
USA 306 3.9 19:03:52 10° W 19:06:35 31° NNW 19:09:46 10° NE
CZ-4B DEB 4.2 19:02:12 10° SSE 19:07:39 65° ENE 19:13:06 10° N
Cosmos 2278 Rocket 2.6 19:02:16 10° NNW 19:07:44 47° ENE 19:12:40 13° SE
CZ-4 R/B 1.5 19:05:05 10° SSE 19:08:45 48° ENE 19:12:29 10° N
CZ-4B R/B 3.7 19:07:11 10° SE 19:12:14 40° ENE 19:17:14 10° N
Cosmos 1766 Rocket 3.5 19:08:15 10° S 19:12:35 82° E 19:17:00 10° N
NOSS 3-3 (C) 4.4 19:09:43 10° S 19:14:08 28° ESE 19:19:02 10° NE
Cosmos 44 Rocket 4.3 19:09:41 10° NW 19:14:11 43° WSW 19:18:34 10° S
Resurs 01 Rocket 2.1 19:10:18 11° SE 19:14:18 40° ENE 19:18:26 10° N
NOSS 2-1 (C) 3.6 19:10:53 10° NNW 19:14:48 79° NE 19:19:46 12° SE
YAOGAN 1 4.1 19:12:43 10° SSW 19:16:41 37° W 19:20:41 10° NNW
ADEOS 3.6 19:11:37 10° SSE 19:16:50 86° WSW 19:22:05 10° NNW
TSX-5 3.8 19:13:45 10° NW 19:16:50 58° WSW 19:20:09 10° SSE
Meteor 2-17 Rocket 4.5 19:11:34 10° N 19:17:33 58° E 19:23:30 10° SSE
GEOS 3 Rocket 3.8 19:13:39 15° ESE 19:17:58 58° NE 19:23:03 10° NNW
USA 290 2.4 19:14:58 10° NNW 19:18:13 54° ENE 19:20:16 20° SE
Helios 1A 2.8 19:14:10 10° NNE 19:18:15 80° ESE 19:22:17 10° S
USA 186 2.2 19:17:45 20° SE 19:19:36 40° ENE 19:22:39 10° N
CZ-4B R/B 3.4 19:14:58 10° SSE 19:19:42 79° WSW 19:24:31 10° NNW
Cosmos 1814 Rocket 4.2 19:15:00 10° SSW 19:20:17 78° WNW 19:25:34 10° NNE
PAYLOAD B 4.3 19:15:16 10° SSE 19:20:46 65° ENE 19:26:20 10° N
Cosmos 1743 4.5 19:17:59 10° SW 19:21:14 33° WNW 19:24:30 10° N
SPOT 5 4.4 19:22:14 16° ENE 19:23:04 17° ENE 19:25:52 10° NNE
Okean-O 4.2 19:23:04 17° ENE 19:23:50 17° ENE 19:26:44 10° NNE
KORONAS-FOTON 3.6 19:20:38 10° N 19:24:20 78° E 19:28:00 10° SSE
Cosmos 1408 Rocket 4.2 19:22:58 11° SSE 19:26:45 34° E 19:30:44 10° NNE
SPOT 1/Viking Rocket 3.8 19:22:49 10° S 19:27:58 72° WSW 19:33:09 10° NNW
NOSS 3-3 (A) 4.1 19:23:19 10° S 19:28:08 38° ESE 19:33:36 10° NE
ISS -3.7 19:24:54 10° WSW 19:28:15 79° NNW 19:30:43 17° NE
CZ-4B R/B 2.7 19:24:58 10° SSE 19:28:46 82° ENE 19:32:49 10° N
Cosmos 2237 Rocket 2.1 19:27:25 10° S 19:32:57 63° ESE 19:38:31 10° NNE
SL-08 R/B 4.1 19:30:00 10° N 19:34:50 56° WNW 19:39:37 10° SSW
Aureole 3 Rocket 4.4 19:29:11 10° SSE 19:35:40 38° E 19:40:29 10° NNE
CSL-04 Rocket 3.7 19:31:44 16° SE 19:35:58 57° ENE 19:41:11 10° N
Meteor 1-14 Rocket 4.4 19:36:11 10° SSW 19:41:42 72° W 19:47:15 10° N
Cosmos 1674 4.0 19:38:59 10° NNW 19:42:01 34° W 19:45:01 10° SSW
Cosmos 1328 Rocket 4.4 19:38:28 10° NNW 19:42:38 49° W 19:46:46 10° SSW
Cosmos 1356 Rocket 3.4 19:40:09 10° NNW 19:44:22 84° W 19:47:40 16° S
SJ-6B 4.1 19:41:06 10° SSW 19:44:29 37° W 19:47:52 10° NNW
Meteor 1-11 Rocket 3.6 19:39:10 10° S 19:44:42 63° E 19:50:11 10° NNE
Aureole 1 4.3 19:42:08 10° NNW 19:45:18 76° ENE 19:46:29 40° SSE
Lacrosse 4 Rocket 3.7 19:42:31 10° NW 19:45:58 24° WSW 19:49:22 10° SSW
Meteor 1-4 Rocket 3.5 19:44:49 10° NNW 19:47:15 32° W 19:49:06 15° SSW
CARTOSAT-1 3.5 19:46:05 18° SSE 19:49:15 86° W 19:53:32 10° NNW
Cosmos 158 Rocket 3.7 19:45:07 10° S 19:49:56 64° ESE 19:54:46 10° NNE
ATLAS CENTAUR R/B 0.8 19:46:36 10° SSW 19:50:07 85° SE 19:53:49 10° NE
NOSS 2-1 (E) 4.4 19:48:03 10° NW 19:52:07 53° WSW 19:56:03 18° SSE
Cosmos 1805 Rocket 3.9 19:52:47 41° E 19:52:52 41° E 19:56:56 10° NNE
Cosmos 1733 3.1 19:53:46 10° SSW 19:57:11 69° W 20:00:37 10° N
Cosmos 1428 Rocket 4.5 19:53:39 10° N 19:59:39 56° ENE 20:02:18 33° SE
USA 276 2.7 19:58:30 10° WNW 20:00:38 45° NW 20:00:38 45° NW
In-Cosmos 22 4.1 19:56:37 10° N 20:02:21 90° ENE 20:06:00 22° S
Cosmos 1980 3.9 19:56:50 10° SSW 20:02:30 72° WNW 20:08:12 10° NNE
Cosmos 2369 Rocket 3.7 20:00:17 10° N 20:04:25 20° NE 20:05:11 19° ENE
SWARM A 4.4 20:03:48 49° SSW 20:04:39 78° W 20:08:09 10° N
Sich 1 2.8 20:07:34 61° SE 20:07:59 66° E 20:12:16 10° NNE
BlueWalker 3 3.5 20:08:23 10° WNW 20:11:31 25° SW 20:12:13 24° SSW
CSL-04 Debris 4.5 20:07:38 17° S 20:11:52 67° WSW 20:17:19 10° NNW
Cosmos 1943 Rocket 2.1 20:06:22 10° NNW 20:11:54 84° WSW 20:14:05 38° SSE
Terra 3.2 20:13:52 24° NE 20:13:52 24° NE 20:16:50 10° NNE
ACS3 Solar Sail 1.8 20:09:36 27° SSE 20:13:21 82° ENE 20:19:48 10° N
ERS-1 Rocket 3.9 20:14:03 32° ENE 20:14:03 32° ENE 20:18:07 10° N
Cosmos 1570 Rocket 4.3 20:09:57 10° SSW 20:15:12 67° WNW 20:20:27 10° NNE
Cosmos 2298 Rocket 4.1 20:10:33 10° NNW 20:15:47 57° ENE 20:16:27 53° E
Nadezhda 4 Rocket 4.1 20:10:46 10° N 20:17:03 78° W 20:21:40 19° S
Cosmos 2195 Rocket 4.4 20:11:05 10° N 20:17:11 69° E 20:19:12 43° SSE
Cosmos 2150 Rocket 4.0 20:12:22 10° NNW 20:17:28 58° ENE 20:17:56 56° E
USA 32 3.9 20:13:08 10° N 20:18:23 71° E 20:19:24 56° SE
Cosmos 1805 4.1 20:21:37 38° N 20:21:37 38° N 20:23:59 10° N
Ariane Rocket 4.5 20:24:22 23° NE 20:24:22 23° NE 20:27:21 10° NNE
Cosmos 1315 Rocket 2.9 20:20:25 10° NNW 20:24:22 68° W 20:24:27 68° WSW
Cosmos 2026 Rocket 3.9 20:18:21 10° N 20:24:33 66° E 20:25:51 52° SE
Cosmos 1092 Rocket 4.0 20:18:44 10° N 20:25:03 65° E 20:26:28 51° SE
Cosmos 836 Rocket 4.5 20:20:25 10° SSW 20:25:41 83° WNW 20:31:01 10° NNE
Meteor 2-12 Rocket 4.5 20:22:15 10° N 20:28:20 57° ENE 20:28:56 54° E
SL-16 R/B 2.9 20:35:17 38° NE 20:35:17 38° NE 20:38:55 10° NNE
Cosmos 1125 Rocket 4.1 20:28:53 10° NNW 20:33:55 51° WSW 20:35:39 36° SSW
Okean O Rocket 2.3 20:35:02 44° SW 20:35:54 51° W 20:40:15 10° NNW
Cosmos 1634 Rocket 3.9 20:36:32 60° SE 20:37:28 69° E 20:43:46 10° NNE
Cosmos 1656 Rocket 4.2 20:36:16 10° NNW 20:41:19 45° NE 20:41:19 45° NE
SL-14 R/B 4.5 20:38:13 10° NNW 20:40:36 37° NNW 20:40:36 37° NNW
CZ-4 R/B 4.2 20:41:54 10° WSW 20:43:33 12° W 20:45:13 10° WNW
USA 59 Rocket 2.5 20:40:35 10° WNW 20:43:59 20° WSW 20:46:30 15° SSW
IRS-1C Rocket 4.3 20:45:02 58° NE 20:45:02 58° NE 20:49:38 10° N
Cosmos 773 Rocket 3.9 20:45:40 86° W 20:45:43 86° WNW 20:51:03 10° NNE
Resurs 01 Rocket 4.0 20:47:47 11° SW 20:50:51 20° W 20:54:07 10° NW
Cosmos 2278 Rocket 3.9 20:46:52 10° NW 20:51:30 27° WSW 20:54:31 17° SW
MetOp-B 4.2 20:56:16 73° WSW 20:56:17 73° WSW 21:01:40 10° NNW
Cosmos 2228 Rocket 4.4 20:52:36 10° N 20:55:20 35° N 20:55:20 35° N
Okean-O 3.6 21:00:31 44° WNW 21:00:31 44° WNW 21:04:06 10° NNW
SPOT 5 3.5 21:01:22 50° WNW 21:01:22 50° WNW 21:05:07 10° NNW
ISS -0.7 21:02:42 10° WNW 21:03:42 16° NW 21:03:42 16° NW
USA 267 4.3 21:08:22 31° NE 21:09:57 35° NNE 21:15:45 10° NW
Cosmos 2237 Rocket 4.5 21:13:07 10° W 21:17:28 22° NW 21:21:49 10° N
Cosmos 2279 Rocket 4.2 21:20:00 66° N 21:20:00 66° N 21:25:17 10° N
Cosmos 1607 4.4 21:16:21 10° SW 21:22:44 62° NW 21:29:07 10° NNE
ATLAS CENTAUR R/B 4.3 21:26:32 10° WNW 21:28:05 12° NW 21:29:40 10° NNW
Cosmos 2297 4.4 21:24:56 10° NNW 21:28:59 49° NNW 21:28:59 49° NNW
NOSS 3-4 (A) 4.0 21:38:31 10° NW 21:44:37 72° NW 21:44:37 72° NW
NOSS 3-4 (C) 4.0 21:38:38 10° NW 21:44:43 72° NW 21:44:43 72° NW
Cosmos 2369 Rocket 3.4 21:43:21 10° NNW 21:46:58 40° NW 21:46:58 40° NW
Terra 3.9 21:52:34 23° NW 21:52:34 23° NW 21:54:43 10° NNW
ACS3 Solar Sail 4.2 21:54:51 12° WSW 21:58:06 16° W 22:01:58 10° NW
SL-16 R/B 4.2 22:17:00 23° WNW 22:17:50 24° NW 22:22:24 10° N
ATLAS 2AS CENTAUR R/B 4.5 22:31:08 10° NNW 22:36:12 21° NNE 22:36:31 21° NNE
Cosmos 2344 4.3 23:20:34 10° NNW 23:27:14 60° N 23:27:14 60° N
